Location: Newark
(39.6867°N, 100.6772°W)
Time: 21:55:55
(UTC+00:00)

Vanguard 1 - Pass Details

Date: 16 October 2019
Orbit: 652 x 3831 km, 34.2° (Epoch: 13 November)

Event Time Altitude Azimuth Distance (km) Brightness Sun altitude
Rises 03:48:44 0° 255° (WSW) 4,747 14.0 -42.9°
Reaches altitude 10° 03:51:17 10° 253° (WSW) 4,069 13.5 -43.3°
Enters shadow 04:00:32 63° 217° (SW) 2,665 12.0 -44.8°
Maximum altitude 04:02:58 71° 172° (S) 2,741 - -45.2°
Drops below altitude 10° 04:23:46 10° 94° (E) 6,748 - -48.4°
Sets 04:29:30 0° 93° (E) 7,930 - -49.3°
